全部
Self Forward Landing Strip Airport (Leesville, LA) 19LA 天气
There is no TAF data available at 19LA or any nearby airports.
There is no METAR data available at 19LA. Showing METAR data for KDRI (23 mi SW).
DRI近期METAR历史数据(19LA无数据)
| Date | Time (CDT) | Flight Rules | Wind Dir. | Speed | Type | Height AGL (ft) | Visibility | Temp (°C) | Temp (°F) | Dew Point (°C) | Dew Point (°F) | Rel. Humid. | Pressure | Density Altitude | Remarks |
|---|---|---|---|---|---|---|---|---|---|---|---|---|---|---|---|
| 05-五月 | 10:15 | VFR | 180° | 10 kt | 10 miles | 24° | 75° | 21° | 69° | 84% | 29.84 in Hg | 1,361 ft | |||
| 05-五月 | 09:55 | VFR | 190° | 10 kt | 10 miles | 24° | 75° | 22° | 71° | 88% | 29.85 in Hg | 1,351 ft | |||
| 05-五月 | 09:35 | VFR | 190° | 8 kt | 10 miles | 23° | 73° | 21° | 69° | 89% | 29.85 in Hg | 1,231 ft | |||
| 05-五月 | 09:15 | VFR | 190° | 7 kt | 10 miles | 23° | 73° | 21° | 69° | 92% | 29.85 in Hg | 1,231 ft | |||
| 05-五月 | 08:55 | VFR | 180° | 9 kt | 10 miles | 22° | 71° | 21° | 69° | 92% | 29.84 in Hg | 1,121 ft | |||
| 05-五月 | 08:35 | VFR | 170° | 7 kt | 10 miles | 22° | 71° | 21° | 69° | 92% | 29.84 in Hg | 1,121 ft | |||
| 05-五月 | 08:15 | VFR | 160° | 7 kt | 10 miles | 21° | 69° | 20° | 68° | 94% | 29.83 in Hg | 1,011 ft | |||
| 05-五月 | 07:55 | VFR | 170° | 6 kt | 10 miles | 21° | 69° | 20° | 68° | 95% | 29.84 in Hg | 1,001 ft | |||
| 05-五月 | 07:35 | VFR | 160° | 7 kt | 10 miles | 21° | 69° | 20° | 68° | 96% | 29.84 in Hg | 1,001 ft | |||
| 05-五月 | 07:15 | VFR | 150° | 6 kt | 10 miles | 20° | 68° | 20° | 68° | 97% | 29.83 in Hg | 891 ft | |||
| 05-五月 | 06:55 | VFR | 150° | 6 kt | 10 miles | 20° | 68° | 19° | 66° | 97% | 29.82 in Hg | 901 ft | |||
| 05-五月 | 06:35 | VFR | 150° | 5 kt | 10 miles | 20° | 68° | 19° | 66° | 97% | 29.82 in Hg | 901 ft | |||
| 05-五月 | 06:15 | VFR | 150° | 6 kt | 10 miles | 19° | 66° | 19° | 66° | 97% | 29.82 in Hg | 781 ft | |||
| 05-五月 | 05:55 | VFR | 150° | 7 kt | 10 miles | 19° | 66° | 19° | 66° | 97% | 29.82 in Hg | 781 ft | |||
| 05-五月 | 05:35 | VFR | 160° | 6 kt | 10 miles | 19° | 66° | 19° | 66° | 98% | 29.82 in Hg | 781 ft | |||
| 05-五月 | 05:15 | VFR | 140° | 5 kt | 10 miles | 19° | 66° | 18° | 64° | 98% | 29.83 in Hg | 771 ft | |||
| 05-五月 | 04:55 | VFR | 150° | 5 kt | 10 miles | 18° | 64° | 18° | 64° | 99% | 29.84 in Hg | 641 ft | |||
| 05-五月 | 04:35 | VFR | 150° | 4 kt | 10 miles | 18° | 64° | 18° | 64° | 100% | 29.84 in Hg | 641 ft | |||
| 05-五月 | 04:15 | VFR | 150° | 4 kt | 10 miles | 18° | 64° | 18° | 64° | 100% | 29.84 in Hg | 641 ft | |||
| 05-五月 | 03:55 | VFR | 140° | 4 kt | 10 miles | 18° | 64° | 18° | 64° | 100% | 29.84 in Hg | 641 ft | |||
| 05-五月 | 03:35 | VFR | 140° | 4 kt | 10 miles | 18° | 64° | 18° | 64° | 100% | 29.84 in Hg | 641 ft | |||
| 05-五月 | 03:15 | VFR | Calm | 10 miles | 18° | 64° | 18° | 64° | 99% | 29.85 in Hg | 631 ft | ||||
| 05-五月 | 02:55 | VFR | Variable | 4 kt | 10 miles | 18° | 64° | 18° | 64° | 99% | 29.85 in Hg | 631 ft | |||
| 05-五月 | 02:35 | VFR | 140° | 3 kt | 10 miles | 18° | 64° | 18° | 64° | 98% | 29.84 in Hg | 641 ft |
登录
| 您的浏览器不支持. 升级您的浏览器 |
